EW9904 Weather Reports


Display with metric or nautical units.
time (UTC)temp
F
wind
direction
speed
MPH
gust
MPH
rain 1hr
in
rain 24hr
in
rain mn
in
humidity
%
barometer
mb
20260903023005 75 89 1.0 2.0 0.00 1.38 0.99 93 1017.5
20260903022504 75 89 1.0 2.0 0.00 1.38 0.99 93 1017.4
20260903022005 75 89 1.0 3.0 0.00 1.38 0.99 93 1017.4
20260903021504 75 89 1.0 3.0 0.00 1.38 0.99 93 1017.3
20260903021005 75 89 0.0 2.0 0.00 1.38 0.99 93 1017.0
20260903020503 75 89 0.0 2.0 0.00 1.38 0.99 93 1017.1
20260903020007 75 89 0.0 2.0 0.00 1.38 0.99 92 1017.1
20260903015504 75 89 1.0 2.0 0.00 1.38 0.99 92 1017.2
20260903013504 75 89 1.0 3.0 0.00 1.38 0.99 92 1017.4
20260903013007 75 89 1.0 3.0 0.00 1.38 0.99 92 1017.3
20260903012503 75 89 1.0 3.0 0.00 1.38 0.99 92 1017.4
20260903012006 76 89 1.0 3.0 0.00 1.38 0.99 92 1017.4
20260903011504 76 89 1.0 2.0 0.00 1.38 0.99 92 1017.4
20260903011005 76 89 1.0 2.0 0.00 1.38 0.99 92 1017.6
20260903010507 76 89 1.0 3.0 0.00 1.38 0.99 91 1017.7
20260903010006 76 89 1.0 3.0 0.00 1.38 0.99 91 1017.6
20260903005504 76 89 1.0 2.0 0.00 1.38 0.99 91 1017.4
20260903005004 76 89 1.0 2.0 0.00 1.38 0.99 91 1017.5
20260903004503 76 89 0.0 2.0 0.00 1.38 0.99 91 1017.4
20260903004003 76 89 1.0 2.0 0.00 1.38 0.99 91 1017.1
20260903003503 76 89 1.0 3.0 0.00 1.38 0.99 91 1017.3
20260903003004 76 89 1.0 3.0 0.00 1.38 0.99 91 1017.0
20260903002504 76 89 1.0 2.0 0.00 1.38 0.99 91 1017.0
20260903002003 76 89 1.0 2.0 0.00 1.38 0.99 91 1017.1
20260903001503 76 89 1.0 2.0 0.00 1.38 0.99 91 1017.1
20260903001003 76 89 0.0 2.0 0.00 1.38 0.99 91 1017.2
20260903000503 76 89 1.0 2.0 0.00 1.38 0.99 91 1017.2
20260903000006 76 89 1.0 6.0 0.00 1.38 0.99 91 1017.3
20260902235503 76 89 1.0 6.0 0.00 1.38 0.99 91 1017.1
20260902235004 76 89 1.0 4.0 0.00 1.38 0.99 91 1017.0
20260902234004 76 89 2.0 6.0 0.00 1.38 0.99 91 1017.0
20260902233004 76 82 1.0 4.0 0.00 1.38 0.99 91 1017.3
20260902232503 76 81 1.0 4.0 0.00 1.38 0.99 91 1017.3
20260902232003 76 84 1.0 3.0 0.00 1.38 0.99 91 1017.2
20260902231504 76 84 1.0 4.0 0.00 1.38 0.99 91 1017.1
20260902231003 76 84 1.0 4.0 0.00 1.38 0.99 91 1017.0
20260902230503 76 325 1.0 2.0 0.00 1.38 0.99 91 1017.0
20260902230006 76 325 1.0 2.0 0.00 1.38 0.99 91 1017.1
20260902225004 76 325 0.0 2.0 0.00 1.38 0.99 91 1017.3
20260902224503 76 325 1.0 2.0 0.00 1.38 0.99 91 1017.2
20260902224004 76 325 1.0 2.0 0.00 1.38 0.99 91 1017.1
20260902223503 76 325 0.0 2.0 0.00 1.38 0.99 91 1017.0
20260902223004 76 325 1.0 2.0 0.00 1.38 0.99 91 1017.0
20260902222516 76 325 1.0 2.0 0.00 1.38 0.99 91 1017.4
20260902222004 76 325 1.0 3.0 0.00 1.38 0.99 91 1017.4
20260902221503 76 325 0.0 3.0 0.00 1.38 0.99 91 1017.6
20260902220009 76 325 1.0 2.0 0.00 1.38 0.99 91 1017.9
20260902215502 76 325 1.0 3.0 0.00 1.38 0.99 91 1017.9
20260902215004 76 325 0.0 3.0 0.00 1.38 0.99 91 1017.6
20260902214503 76 325 1.0 2.0 0.00 1.38 0.99 91 1017.6
20260902214004 76 325 1.0 2.0 0.00 1.38 0.99 91 1017.6
20260902213503 76 325 0.0 2.0 0.00 1.38 0.99 90 1017.5
20260902213005 76 325 0.0 2.0 0.00 1.38 0.99 90 1017.8
20260902212505 76 325 1.0 2.0 0.00 1.38 0.99 90 1017.8
20260902212003 76 325 1.0 2.0 0.00 1.38 0.99 90 1017.7
20260902211503 76 325 0.0 2.0 0.00 1.38 0.99 90 1017.8
20260902211005 76 325 1.0 2.0 0.01 1.38 0.99 91 1017.6
20260902210503 76 325 1.0 3.0 0.01 1.38 0.99 91 1017.8
20260902210005 76 325 2.0 5.0 0.01 1.38 0.99 90 1017.4
20260902205503 76 325 3.0 8.0 0.01 1.38 0.99 90 1017.5
20260902205006 76 347 3.0 6.0 0.01 1.38 0.99 91 1017.5
20260902204503 75 243 2.0 5.0 0.01 1.38 0.99 91 1016.3
20260902204002 75 221 1.0 5.0 0.01 1.38 0.99 91 1016.2
20260902203504 75 229 2.0 11.0 0.01 1.38 0.99 90 1016.2
20260902202502 75 92 2.0 8.0 0.01 1.38 0.99 90 1015.8
20260902202004 75 119 2.0 8.0 0.01 1.38 0.99 90 1015.6
20260902201504 75 107 2.0 6.0 0.01 1.38 0.99 90 1015.8
20260902201005 75 172 2.0 6.0 0.00 1.37 0.98 89 1015.6
20260902200005 76 67 3.0 6.0 0.00 1.37 0.98 88 1016.1
20260902195006 76 209 2.0 7.0 0.00 1.37 0.98 87 1017.0
20260902194005 76 90 1.0 4.0 0.00 1.37 0.98 87 1017.6
20260902193503 76 90 2.0 4.0 0.00 1.37 0.98 87 1018.0
20260902193006 77 91 1.0 3.0 0.00 1.37 0.98 86 1018.6
20260902192503 78 90 1.0 3.0 0.00 1.37 0.98 85 1019.3
20260902191503 78 93 2.0 4.0 0.00 1.37 0.98 83 1019.7
20260902190503 78 128 1.0 4.0 0.00 1.37 0.98 82 1019.1
20260902190006 79 128 2.0 4.0 0.00 1.37 0.98 83 1018.7
20260902185503 79 128 2.0 4.0 0.00 1.37 0.98 83 1019.1
20260902185004 79 128 2.0 5.0 0.00 1.37 0.98 84 1019.0
20260902184004 79 132 3.0 8.0 0.00 1.37 0.98 83 1018.7
20260902183004 80 139 3.0 7.0 0.00 1.37 0.98 81 1018.8
20260902182502 81 82 2.0 6.0 0.00 1.37 0.98 83 1018.8
20260902182005 81 96 2.0 4.0 0.00 1.37 0.98 83 1018.9
20260902181503 80 99 2.0 4.0 0.00 1.37 0.98 83 1019.0
20260902181003 80 101 2.0 4.0 0.00 1.37 0.98 85 1019.0
20260902180007 79 90 2.0 5.0 0.00 1.37 0.98 85 1019.1
20260902175503 79 86 2.0 5.0 0.00 1.37 0.98 85 1019.2
20260902175002 79 48 2.0 5.0 0.00 1.37 0.98 85 1019.1
20260902174502 79 74 2.0 4.0 0.00 1.37 0.98 85 1019.1
20260902174003 79 107 2.0 4.0 0.00 1.37 0.98 85 1019.0
20260902173504 79 110 2.0 7.0 0.00 1.37 0.98 85 1019.0
20260902173002 79 110 2.0 7.0 0.00 1.37 0.98 83 1019.0
20260902172501 80 123 2.0 7.0 0.00 1.37 0.98 84 1019.0
20260902172002 80 101 2.0 6.0 0.00 1.37 0.98 82 1018.8
20260902171501 81 98 2.0 6.0 0.00 1.37 0.98 83 1018.7
20260902170502 79 128 2.0 4.0 0.00 1.37 0.98 84 1018.7
20260902170004 80 128 2.0 4.0 0.00 1.37 0.98 84 1018.7
20260902165503 80 128 2.0 4.0 0.00 1.37 0.98 84 1018.6
20260902165005 80 134 2.0 4.0 0.00 1.37 0.98 82 1018.5
20260902164002 81 101 3.0 9.0 0.00 1.37 0.98 81 1018.5
20260902163501 80 66 2.0 5.0 0.00 1.37 0.98 81 1018.6
20260902162502 80 109 3.0 6.0 0.00 1.37 0.98 83 1018.7
20260902162003 80 92 3.0 7.0 0.00 1.37 0.98 82 1018.6
20260902161502 80 107 3.0 8.0 0.00 1.37 0.98 82 1018.6
20260902161002 80 119 3.0 8.0 0.00 1.37 0.98 83 1018.5
20260902160503 80 103 3.0 8.0 0.00 1.37 0.98 81 1018.5
20260902160008 80 74 3.0 8.0 0.00 1.37 0.98 84 1018.5
20260902155501 81 78 2.0 8.0 0.00 1.37 0.98 84 1018.6
20260902155004 80 111 3.0 4.0 0.00 1.37 0.98 85 1018.4
20260902154503 80 142 3.0 10.0 0.00 1.37 0.98 85 1018.5
20260902153502 80 69 3.0 9.0 0.00 1.37 0.98 84 1018.5
20260902153003 80 72 2.0 5.0 0.00 1.37 0.98 86 1018.6
20260902152502 80 72 2.0 5.0 0.00 1.37 0.98 85 1018.6
20260902152004 80 86 2.0 6.0 0.00 1.37 0.98 86 1018.6
20260902151502 79 86 2.0 6.0 0.00 1.37 0.98 87 1018.6
20260902151003 79 107 3.0 6.0 0.00 1.37 0.98 87 1018.6
20260902150503 79 109 4.0 11.0 0.00 1.37 0.98 87 1018.7
20260902150003 79 87 3.0 11.0 0.00 1.37 0.98 88 1018.7
20260902145502 78 111 3.0 7.0 0.00 1.37 0.98 89 1018.7
20260902145002 78 111 3.0 8.0 0.00 1.37 0.98 88 1018.7
20260902144504 78 126 3.0 8.0 0.00 1.37 0.98 89 1018.8
20260902144002 78 61 3.0 7.0 0.00 1.37 0.98 89 1018.7
20260902142002 77 104 2.0 6.0 0.00 1.37 0.98 91 1018.8
20260902141501 77 103 2.0 4.0 0.00 1.37 0.98 91 1018.8
20260902141002 77 103 2.0 4.0 0.00 1.37 0.98 91 1018.9
20260902140505 77 103 2.0 4.0 0.00 1.37 0.98 91 1018.7
20260902135500 78 103 2.0 6.0 0.00 1.37 0.98 92 1018.5
20260902135002 78 98 2.0 4.0 0.00 1.37 0.98 93 1018.5
20260902134501 77 98 2.0 7.0 0.00 1.37 0.98 93 1018.5
20260902134002 77 92 3.0 7.0 0.00 1.37 0.98 93 1018.4
20260902133001 76 109 3.0 7.0 0.00 1.37 0.98 94 1018.1
20260902132500 76 104 2.0 6.0 0.00 1.37 0.98 94 1018.0
20260902132001 76 71 2.0 7.0 0.00 1.37 0.98 94 1018.0
20260902130500 76 12 1.0 3.0 0.00 1.37 0.98 95 1017.9
20260902130002 76 355 1.0 2.0 0.00 1.37 0.98 94 1017.9
20260902125501 76 355 1.0 2.0 0.00 1.37 0.98 94 1017.9
20260902125002 76 355 1.0 3.0 0.00 1.37 0.98 94 1017.8
20260902124502 76 355 1.0 3.0 0.00 1.37 0.98 95 1018.0
20260902124001 76 355 1.0 3.0 0.00 1.37 0.98 95 1017.9
20260902123003 75 355 1.0 2.0 0.00 1.37 0.98 95 1017.9
20260902122501 75 355 1.0 2.0 0.00 1.37 0.98 95 1017.9
20260902122002 75 355 1.0 3.0 0.00 1.37 0.98 95 1018.0
20260902121500 75 355 1.0 3.0 0.00 1.37 0.98 95 1018.0
20260902121001 75 355 1.0 2.0 0.00 1.37 0.98 95 1018.0
20260902120501 75 355 1.0 2.0 0.00 1.37 0.98 95 1018.0
20260902120001 75 355 1.0 2.0 0.00 1.37 0.98 95 1018.1
20260902115501 75 355 1.0 2.0 0.00 1.37 0.98 95 1018.0
20260902115001 74 355 1.0 2.0 0.00 1.37 0.98 95 1017.9
20260902114501 74 355 0.0 2.0 0.00 1.37 0.98 95 1017.9
20260902114001 74 355 0.0 1.0 0.00 1.37 0.98 95 1017.8
20260902113500 73 355 0.0 1.0 0.00 1.37 0.98 95 1017.9
20260902113003 73 355 0.0 1.0 0.00 1.37 0.98 94 1017.9
20260902111501 72 355 0.0 1.0 0.00 1.37 0.98 94 1017.8
20260902110501 72 355 0.0 0.0 0.00 1.37 0.98 94 1017.7
20260902110003 72 355 0.0 0.0 0.00 1.37 0.98 94 1017.7
20260902105500 72 355 0.0 0.0 0.00 1.37 0.98 94 1017.7
20260902105001 71 355 0.0 0.0 0.00 1.37 0.98 94 1017.6
20260902103501 71 355 1.0 2.0 0.00 1.37 0.98 94 1017.3
20260902102501 72 355 0.0 1.0 0.00 1.37 0.98 94 1017.2
20260902102001 72 355 0.0 0.0 0.00 1.37 0.98 94 1017.1
20260902101501 72 355 0.0 0.0 0.00 1.37 0.98 94 1017.1
20260902101001 72 355 0.0 0.0 0.00 1.37 0.98 94 1017.1
20260902100001 72 355 0.0 0.0 0.00 1.37 0.98 94 1016.9
20260902094001 72 355 0.0 3.0 0.00 1.37 0.98 94 1017.0
20260902093500 72 355 1.0 3.0 0.00 1.37 0.98 94 1016.9
20260902093003 72 355 1.0 3.0 0.00 1.37 0.98 94 1016.9
20260902092500 72 355 2.0 4.0 0.00 1.37 0.98 94 1016.9
20260902092002 72 355 2.0 4.0 0.00 1.37 0.98 94 1016.9
20260902091500 72 355 2.0 5.0 0.00 1.37 0.98 94 1016.7
20260902090500 72 57 1.0 4.0 0.00 1.37 0.98 94 1016.7
20260902090001 72 159 1.0 5.0 0.00 1.37 0.98 94 1016.7
20260902085459 72 163 1.0 5.0 0.00 1.37 0.98 94 1016.6
20260902085001 72 163 1.0 5.0 0.00 1.37 0.98 94 1016.5
20260902084500 72 165 0.0 2.0 0.00 1.37 0.98 94 1016.4
20260902084000 72 164 1.0 2.0 0.00 1.37 0.98 94 1016.4
20260902083459 72 164 1.0 3.0 0.00 1.37 0.98 94 1016.4
20260902082959 72 164 1.0 5.0 0.00 1.37 0.98 94 1016.4
20260902082458 72 165 2.0 5.0 0.00 1.37 0.98 94 1016.3
20260902081500 72 164 1.0 3.0 0.00 1.37 0.98 94 1016.3
20260902081002 72 165 1.0 2.0 0.00 1.37 0.98 94 1016.1
20260902080500 72 165 1.0 2.0 0.00 1.37 0.98 94 1016.0
20260902080004 72 165 1.0 2.0 0.00 1.37 0.98 94 1016.1
20260902075459 72 165 1.0 2.0 0.00 1.37 0.98 94 1016.0
20260902075000 72 165 1.0 2.0 0.00 1.37 0.98 94 1016.0
20260902073500 72 165 0.0 2.0 0.00 1.37 0.98 94 1015.7
20260902073002 72 165 0.0 2.0 0.00 1.37 0.98 94 1015.7
20260902072500 72 165 0.0 2.0 0.00 1.37 0.98 94 1015.7
20260902072000 72 165 0.0 1.0 0.00 1.37 0.98 94 1015.8
20260902071501 72 165 0.0 1.0 0.00 1.37 0.98 94 1015.8
20260902071001 72 165 0.0 2.0 0.00 1.37 0.98 94 1015.8
20260902070500 73 165 1.0 2.0 0.00 1.37 0.98 94 1015.8
20260902070001 72 165 2.0 5.0 0.00 1.37 0.98 94 1015.8
20260902064500 72 164 1.0 5.0 0.00 1.37 0.98 94 1015.9
20260902063959 72 164 0.0 3.0 0.00 1.37 0.98 94 1015.9
20260902063458 72 164 0.0 2.0 0.00 1.37 0.98 94 1015.9
20260902063000 72 164 1.0 2.0 0.01 1.37 0.98 94 1015.9
20260902062500 72 164 1.0 2.0 0.01 1.37 0.98 94 1015.9
20260902062000 72 164 0.0 2.0 0.01 1.37 0.98 94 1016.0
20260902061459 72 164 0.0 3.0 0.01 1.37 0.98 94 1015.9
20260902061000 72 164 0.0 3.0 0.01 1.37 0.98 93 1015.9
20260902060459 72 164 1.0 2.0 0.01 1.37 0.98 93 1015.9
20260902060004 72 164 1.0 2.0 0.02 1.37 0.98 93 1016.0
20260902055459 72 164 1.0 2.0 0.20 1.37 0.98 93 1016.1
20260902054959 72 164 1.0 2.0 0.33 1.37 0.98 93 1016.1
20260902054459 72 164 0.0 2.0 0.56 1.37 0.98 93 1016.0
20260902054000 72 164 1.0 2.0 0.70 1.37 0.98 93 1015.9
20260902053459 72 164 1.0 3.0 0.79 1.37 0.98 93 1015.9
20260902053000 72 164 1.0 3.0 0.86 1.36 0.97 93 1016.0
20260902052459 72 164 1.0 3.0 0.88 1.36 0.97 93 1016.1
20260902052000 72 165 2.0 7.0 0.90 1.36 0.97 93 1016.2
20260902051458 72 164 1.0 7.0 0.97 1.36 0.97 93 1016.4
20260902050959 72 17 2.0 6.0 0.97 1.36 0.97 93 1016.6
20260902050459 72 27 3.0 8.0 0.97 1.36 0.97 93 1016.9
20260902050008 72 51 5.0 14.0 0.94 1.33 0.94 93 1016.8
20260902045004 72 99 4.0 12.0 0.65 1.04 0.65 93 1017.2
20260902044503 73 100 3.0 7.0 0.42 0.81 0.42 93 1017.7
20260902044004 73 28 3.0 8.0 0.28 0.67 0.28 92 1017.8
20260902043503 73 59 3.0 8.0 0.19 0.58 0.19 92 1016.9
20260902042004 73 80 3.0 8.0 0.08 0.46 0.07 92 1016.0
20260902041505 73 89 3.0 11.0 0.01 0.39 0.00 92 1016.4
20260902041003 73 88 4.0 11.0 0.02 0.39 0.00 92 1016.2
20260902040005 73 92 4.0 10.0 0.18 0.39 0.39 92 1016.3
20260902035004 74 130 4.0 14.0 0.39 0.39 0.39 92 1016.2
20260902034503 73 83 1.0 6.0 0.39 0.39 0.39 92 1016.4
20260902034004 73 188 0.0 1.0 0.39 0.39 0.39 92 1015.8
20260902033503 73 188 1.0 2.0 0.39 0.39 0.39 92 1015.6
20260902033004 73 188 1.0 3.0 0.38 0.38 0.38 92 1015.7
20260902032504 73 188 1.0 3.0 0.38 0.38 0.38 91 1015.8
20260902032005 73 209 1.0 2.0 0.38 0.38 0.38 91 1015.8
20260902031503 73 209 2.0 6.0 0.37 0.37 0.37 90 1015.9
20260902031005 73 209 4.0 13.0 0.37 0.37 0.37 90 1016.0
20260902030504 74 332 8.0 18.0 0.30 0.30 0.30 89 1017.1
20260902030007 74 286 11.0 24.0 0.21 0.21 0.21 87 1017.5
20260902025505 75 323 10.0 24.0 0.01 0.01 0.01 84 1017.3
20260902025005 77 5 9.0 21.0 0.00 0.00 0.00 80 1016.8
20260902024005 79 19 8.0 21.0 0.00 0.00 0.00 77 1016.3
20260902023504 80 54 7.0 21.0 0.00 0.00 0.00 76 1015.9